Weather History for East Milton, MA

Change the Weather History Date:

Saturday, December 29, 2012

  Actual Average (KBOS) Record (KBOS)
Temperature  
Mean Temperature 30 °F 31 °F  
Max Temperature 34 °F 37 °F 73 °F (1984)
Min Temperature 25 °F 24 °F -17 °F (1933)
Degree Days  
Heating Degree Days 36 34  
Month to date heating degree days 868  
Since 1 July heating degree days 1923  
Cooling Degree Days 0 0  
Month to date cooling degree days 0  
Year to date cooling degree days 747  
Moisture  
Dew Point 25 °F    
Average Humidity 85    
Maximum Humidity 96    
Minimum Humidity 72    
Precipitation  
Precipitation 0.98 in 0.11 in 1.32 in (2013)
Month to date precipitation 3.57  
Year to date precipitation 43.56  
Snow  
Snow 0.00 in 0.40 in 11.30 in (1976)
Month to date snowfall 8.2  
Since 1 July snowfall 9.5  
Snow Depth -    
Sea Level Pressure  
Sea Level Pressure 29.77 in    
Wind  
Wind Speed 10 mph (North)    
Max Wind Speed 17 mph    
Max Gust Speed 32 mph    
T = Trace of Precipitation, MM = Missing Value Source: NWS Daily Summary

Daily Weather History Graph

Daily Weather History Graph

Search for Another Location

Airport:

Trip Planner

Search our weather history database for the weather conditions in past years. The results will help you decide how hot, cold, wet, or windy it might be!

Date:

Astronomy

Dec. 29, 2012 Rise Set
Actual Time 7:12 AM EST 4:20 PM EST
Civil Twilight 6:41 AM EST 4:52 PM EST
Nautical Twilight 6:05 AM EST 5:27 PM EST
Astronomical Twilight 5:31 AM EST 6:02 PM EST
Moon 5:52 PM EST (12/29) 7:42 AM EST (12/29)
Length of Visible Light 10h 11m
Length of Day
9h 07m
Full, 98% of the Moon is Illuminated
Dec 29
Full
Jan 4
Last Quarter
Jan 11
New
Jan 18
First Quarter
Jan 26
Full

Hourly Weather History & Observations

Time (EST) Temp. Windchill Dew Point Humidity Pressure Visibility Wind Dir Wind Speed Gust Speed Precip Events Conditions
12:54 AM 26.1 °F 16.8 °F 21.0 °F 81% 30.00 in - West 9.2 mph - N/A   Unknown
1:54 AM 26.1 °F 16.8 °F 21.0 °F 81% 30.03 in - West 9.2 mph - N/A   Unknown
2:54 AM 26.1 °F 16.2 °F 21.0 °F 81% 30.02 in - West 10.4 mph - N/A   Unknown
3:54 AM 25.0 °F 15.5 °F 21.9 °F 88% 30.01 in - WNW 9.2 mph - N/A   Unknown
4:54 AM 26.1 °F 16.2 °F 21.9 °F 84% 30.00 in - NW 10.4 mph - N/A   Unknown
5:54 AM 26.1 °F 18.4 °F 21.0 °F 81% 30.00 in - NW 6.9 mph - N/A   Unknown
6:54 AM 26.1 °F 19.4 °F 21.9 °F 84% 30.00 in - WNW 5.8 mph - N/A   Unknown
7:54 AM 28.0 °F 20.8 °F 21.0 °F 75% 29.98 in - NNW 6.9 mph - N/A   Unknown
8:54 AM 28.0 °F 24.2 °F 21.9 °F 78% 29.98 in - North 3.5 mph - N/A   Unknown
9:54 AM 30.0 °F 26.5 °F 23.0 °F 75% 29.96 in - South 3.5 mph - N/A   Unknown
10:54 AM 30.0 °F 26.5 °F 24.1 °F 79% 29.91 in - East 3.5 mph - N/A   Unknown
11:54 AM 30.9 °F 27.5 °F 23.0 °F 72% 29.88 in - East 3.5 mph - N/A   Unknown
12:54 PM 30.9 °F 21.7 °F 23.0 °F 72% 29.80 in - NE 11.5 mph 16.1 mph N/A   Unknown
1:54 PM 30.0 °F 20.5 °F 24.1 °F 79% 29.76 in - NE 11.5 mph 17.3 mph N/A   Unknown
2:54 PM 30.0 °F 20.5 °F 26.1 °F 85% 29.73 in - NNE 11.5 mph - N/A   Unknown
3:54 PM 30.0 °F 21.1 °F 28.0 °F 92% 29.70 in - NNE 10.4 mph - 0.02 in   Unknown
4:54 PM 30.0 °F 20.0 °F 28.0 °F 92% 29.63 in - NNE 12.7 mph 19.6 mph 0.05 in   Unknown
5:54 PM 30.9 °F 20.7 °F 30.0 °F 96% 29.57 in - NE 13.8 mph 20.7 mph 0.06 in   Unknown
6:54 PM 33.1 °F 23.4 °F 32.0 °F 96% 29.51 in - NE 13.8 mph 23.0 mph 0.13 in   Unknown
7:54 PM 34.0 °F 23.8 °F 33.1 °F 96% 29.44 in - ENE 16.1 mph 26.5 mph 0.10 in   Unknown
8:54 PM 34.0 °F 23.4 °F 32.0 °F 92% 29.38 in - NE 17.3 mph 32.2 mph 0.14 in   Unknown
9:54 PM 32.0 °F 22.5 °F 30.9 °F 96% 29.40 in - North 12.7 mph 21.9 mph 0.16 in   Unknown
10:54 PM 30.0 °F 18.7 °F 28.9 °F 96% 29.40 in - NNW 16.1 mph 25.3 mph 0.21 in   Unknown
11:54 PM 28.0 °F 16.1 °F 26.1 °F 92% 29.42 in - NNW 16.1 mph 25.3 mph 0.11 in   Unknown